La Route des Hèlviens - 10/05/2009

Cyclosportive 152 Km


Pl Do. Nom - Surname Prénom - Name S-Cat Club - Team TEMPS - Time /sx /cat Vit.
1 541 CHAVANON Jean-Luc MG Chamrousse TC 04:06:55 1 1 36,94
2 535 ROUX Jean-Pascal MG Vélo 101 04:08:42 2 2 36,67
3 504 GRANGER Jérôme ME Pierrelattes VC 04:08:42 3 1 36,67
4 589 GARY Hervé FSE Nîmes AVC 04:08:42 4 1 36,67
5 553 GARIDEL Bernard MG Nîmes AVC 04:08:43 5 3 36,67
6 537 CHAPELLE Jérémie MD Salindres VC 04:08:45 6 1 36,66
7 604 CHANAL Hervé FSE Sarras-Ozon AL 04:08:45 7 2 36,66
8 501 SEGURET Lionel MD Sarras-Ozon AL 04:08:52 8 2 36,64
9 527 CLAIRET Thibault ME Rhône Vallée 04:13:15 9 2 36,01
10 590 DAVID Guillaume FSE Oisans UC 04:13:18 10 3 36,00
11 530 MORGAT Roland MD Pont VCSTVP 04:15:26 11 3 35,70
12 610 COCOMINA Stephane FSE Aix Vélo Plus 04:16:35 12 4 35,54
13 538 VIALAT Geoffrey MD Alès VSG 04:16:39 13 4 35,53
14 510 GUERIN Frédéric MG Les Tourettes AC 04:19:35 14 4 35,13
15 534 LUBESPERE Jean-François MSE Vélo 101 04:19:57 15 1 35,08
16 582 GOMEZ Fernando MSE Tain L'Hermitage VVC 04:19:58 16 2 35,08
17 624 SOUBRIER Roland MD Loriol VC 04:19:59 17 5 35,08
18 595 SONIER Yvan FSE St Rambert VS 04:20:00 18 5 35,08
19 587 BEVILACQUA Serge MG Prades Mousquetaires 04:20:01 19 5 35,07
20 514 FOURNIER Eric MSE La Teste AS 04:20:02 20 3 35,07
21 567 BOUCHET Alexandre ME Corconne CC 04:20:02 21 3 35,07
22 586 DESPLANCHES Frédéric FSE Chamrousse TC 04:20:03 22 6 35,07
23 516 RANC Jérôme FSE Alès CV 04:20:03 23 7 35,07
24 617 PARIS Patrice MSE Les Tourettes AC 04:20:04 24 4 35,07
25 568 LEPELTIER Thierry MG Les 3 C 04:20:05 25 6 35,06
26 575 FREAU Denis MI Orange CC 04:20:06 26 1 35,06
27 548 SOBOUL Laurent ME Aubenas UC 04:20:06 27 4 35,06
28 592 LEGUERN Frédéric FSE Salindres VC 04:20:07 28 8 35,06
29 580 MEYER Jacques MG Chamrousse TC 04:20:08 29 7 35,06
30 524 FICHEUX Jérôme ME Horizon 38 04:20:10 30 5 35,05
31 563 GIRARDOT Eric MG Chamrousse TC 04:20:11 31 8 35,05
32 573 LECOULS Jean-Claude MSE Les 3 C 04:22:27 32 5 34,75
33 552 CHAPELLE Daniel MI Corconne CC 04:22:32 33 2 34,74
34 605 MARAGA Claud MSE Orléans UC 04:22:43 34 6 34,71
35 576 GERMA Bruno ME Aubenas UC 04:26:44 35 6 34,19
36 597 COULAUD Bruno ME Sarras-Ozon AL 04:26:47 36 7 34,18
37 197 ISABAL Philippe MG Perpignan SC 04:26:50 37 9 34,18
38 557 RAOUX Patrice ME Les 3 C 04:26:52 38 8 34,17
39 621 MARC Sylvain ME All Bikes 04:26:53 39 9 34,17
40 596 GAY Bertrand MG Sarras-Ozon AL 04:26:56 40 10 34,17
41 550 ROMANET Pierre FSE Chamrousse TC 04:26:57 41 9 34,16
42 608 STOTZ Pascal ME Voiron UC 04:26:57 42 10 34,16
43 569 RICHARD Jean-Claude MG Les 3 C 04:26:59 43 11 34,16
44 594 CARNOL Ivan MSE Vervier GS (Belg.) 04:27:58 44 7 34,03
45 532 NAVARRO Serge MG Port-de-Bouc VC 04:29:23 45 12 33,85
46 502 FORT Patrice MI St Peray CC 04:29:29 46 3 33,84
47 526 CHASSAGNE Philippe MI Fontvieille CC 04:29:43 47 4 33,81
48 618 RIMOUX Jean-Luc MSE Les Tourettes AC 04:30:47 48 8 33,68
49 505 ASTIC Antoine MD Sarras-St Vallier C 04:32:44 49 6 33,44
50 602 TOURNAIRE Christian MJ Aubenas-Vals 04:32:44 50 1 33,44
51 528 DUPUIS Patrick MG Sarras-Ozon AL 04:32:44 51 13 33,44
52 540 BARRAL Bruno MSE Mt Aïgoual VC 04:33:37 52 9 33,33
53 584 VALERO Jésus MSE Rives UC 04:35:15 53 10 33,13
54 558 BELLUT Maxime MG Jonage ES 04:35:51 54 14 33,06
55 609 PLISSONNIER Marc FSE Chamrousse TC 04:36:19 55 10 33,01
56 585 BOUVIER Hervé FSE Isles-Sur-La Sorgue VC 04:36:19 56 11 33,00
57 611 LATIONI O FSE Aix Vélo Plus 04:36:26 57 12 32,99
58 614 REY Jérôme ME Chamrousse TC 04:36:33 58 11 32,98
59 615 JULLIARD Fred FSE Chamrousse TC 04:36:34 59 13 32,98
60 616 PIOT Christophe FSE Chamrousse TC 04:36:34 60 14 32,97
61 562 MAILLY Frédéric MG Pernes Vélocio 04:36:36 61 15 32,97
62 571 LICINI Marc MSE Les 3 C 04:37:17 62 11 32,89
63 593 DELLACHERIE/HENRY Daniel/Richard MTANDEM Les Copains 04:38:18 63 1 32,77
64 603 DUCROS Jacques MI St Rambert VS 04:41:46 64 5 32,37
65 512 SADIKI Jouad FSE Aigues-Mortes VC 04:41:53 65 15 32,35
66 577 JOUIN Arnaud MD Pierrelattes UC 04:41:56 66 7 32,35
67 521 CHATAIN Luc MG Horizon 38 04:43:22 67 16 32,18
68 507 ESCLANGON Frédéric MG Aubenas Cyclo 04:43:33 68 17 32,16
69 518 LEFRERE Lionel FSE Horizon 38 04:43:49 69 16 32,13
70 531 RUIZ Alain MJ Club neutre 04:44:17 70 2 32,08
71 554 PREY Rémi MD Non licencié 04:45:03 71 8 31,99
72 560 GRIMAL Claude MI Carpentras ASPTT 04:46:12 72 6 31,87
73 572 MARQUION Gabriel MSE Les 3 C 04:46:14 73 12 31,86
74 529 BANDINI Bruno MG Pont VCSTVP 04:46:16 74 18 31,86
75 600 ALMERAS Jean-Marc MG Le Pontet ASER 04:46:22 75 19 31,85
76 566 DELFAUD Luc MSE Club neutre 04:48:16 76 13 31,64
77 598 FRANCES Guy MJ Narbonne VS 04:48:41 77 3 31,59
78 513 PEYREROL Gérard MJ Pernes Vélocio 04:48:42 78 4 31,59
79 506 ESCLANGON Isabelle FC Aubenas Cyclo 04:48:43 1 1 31,59
80 196 LAYRIS Charles MSE non licencié 04:48:46 79 14 31,58
81 551 ALLEGRE Michel MSE Castries CC 04:48:49 80 15 31,58
82 555 VOISIN David ME Paris ACBB 04:49:40 81 12 31,48
83 517 BONNEFOY Alain MJ Melgorien VC 04:52:01 82 5 31,23
84 588 MAYAUD Jean-René MSE Les 3 C 04:52:04 83 16 31,22
85 556 MIKOLAJCZYK Patrick MG Anduze EC 04:52:13 84 20 31,21
86 539 GAUTIER Karim ME Rhône-Alpes Cyclisme 04:53:13 85 13 31,10
87 519 BOUVIER Guillaume MD Horizon 38 04:53:21 86 9 31,09
88 583 CHABERT Michel MI ST Gilles AVC 04:55:41 87 7 30,84
89 599 DURET Pierre MJ Noves VC 04:55:59 88 6 30,81
90 545 ROTH Claude MG Montélimar St James VC 04:57:15 89 21 30,68
91 543 PEREIRA Anthony MSE Bellegard DC 04:59:26 90 17 30,46
92 503 COPIE Philippe FSE Issoire US Pédale 05:00:35 91 17 30,34
93 523 DECOMBIS Erck MG Horizon 38 05:00:37 92 22 30,34
94 578 BAXELLERIE Christian MSE Perpignan SC 05:03:02 93 18 30,10
95 515 OZIOL Bernard MI Brévannes AS 05:04:05 94 8 29,99
96 525 DUPLESSY Ghislain FSE Rhodanien VC 05:04:28 95 18 29,95
97 520 BERAUD Noël MSE Horizon 38 05:06:54 96 19 29,72
98 559 JENOT Emile ML Côte d'Azur 05:08:40 97 1 29,55
99 509 CARRIER Robert MK Gazelec gardois 05:08:43 98 1 29,54
100 536 GAILLARD Franck MG Maruèjols VCE 05:08:52 99 23 29,53
101 561 DESCHEMAKER Franck FSE Pernes Vélocio 05:13:12 100 19 29,12
102 591 GAILLARD Jean-Claude ML Rhône-Alpes Cyclisme 05:15:50 101 2 28,88
103 620 BALLESTER Guy MI Aïgues-Mortes 05:18:20 102 9 28,65
104 565 PONS DE VINCENT Philippe MG Non licencié 05:18:32 103 24 28,63
105 508 DONAT Jean-Luc FSE Non licencié 05:23:53 104 20 28,16
106 607 BEBARD Véronique FC Chamrousse TC 05:26:19 2 2 27,95
107 606 SIMONATO Francoise FC Chamrousse TC 05:26:24 3 3 27,94
108 574 LECOULS Chantal FC Les 3 C 05:37:09 4 4 27,05
109 542 COCLET Marc MK Bellegard DC 05:37:10 105 2 27,05
110 564 DERUSCHI Frédéric MG Teyran Bike 34 05:46:05 106 25 26,35
111 547 MOUNIER Odile FC Sarras-Ozon AL 05:51:38 5 5 25,94
112 546 CHATONNIER Frédéric MSE Sarras-Ozon AL 05:51:44 107 20 25,93